Flag Weather past 2 weeks in Campinas, São Paulo, Brazil

Now
88 °F

Passing clouds.


Feels Like: 86 °F
Forecast: 68 / 91 °F
Wind: 14 mph from North

Location: Campinas Aeroporto

Current Time: Oct 30, 2014 at 12:41:47 PM

Latest Report: Oct 30, 2014 at 12:00 PM


Visibility: N/A

Pressure: 29.92 "Hg

Humidity: 33%

Dew point: 55 °F

Location of CampinasLocation

Historic Weather in Campinas — Graph

°F

Campinas temperature yesterday

Maximum temperature yesterday: 88 °F (at 3:00 PM)
Minimum temperature yesterday: 59 °F (at 5:00 AM)
Average temperature yesterday: 75 °F

Past Weeks' High & Low Weather Summary

 TemperatureHumidityPressure
High99 °F (Oct 17, 2:00 PM)94% (Oct 26, 7:00 PM)30.18 "Hg (Oct 26, 7:00 PM)
Low59 °F (Oct 28, 4:00 AM)14% (Oct 28, 4:00 PM)29.83 "Hg (Oct 19, 5:00 PM)
Average75 °F58%30.02 "Hg
* Reported Oct 15 10:00 AM — Oct 30 11:00 AM, Campinas, Weather by CustomWeather, © 2014

Note: Actual official high and low records may vary slightly from our data, if they occured in-between our weather recording intervals... More about our weather records

Advertising

Campinas weather history for previous 24 hours

 ConditionsComfort  
Time TempWeatherWind HumidityBarometerVisibility
11:00 AM
Oct 30
84 °FPassing clouds.14 mph40%29.92 "HgN/A
10:00 AM82 °FSunny.13 mph40%29.92 "Hg10 mi
9:00 AM79 °FSunny.8 mph42%29.92 "Hg10 mi
8:00 AM72 °FSunny.6 mph53%29.89 "Hg10 mi
7:00 AM66 °FSunny.7 mph64%29.89 "Hg10 mi
6:00 AM66 °FClear.7 mph64%29.86 "Hg10 mi
5:00 AM68 °FClear.6 mph60%29.83 "Hg10 mi
4:00 AM68 °FClear.8 mph60%29.83 "Hg10 mi
3:00 AM70 °FClear.7 mph60%29.83 "Hg10 mi
2:00 AM72 °FClear.8 mph57%29.86 "Hg10 mi
1:00 AM72 °FClear.9 mph61%29.86 "Hg6 mi
12:00 AM73 °FClear.10 mph57%29.89 "Hg5 mi
11:00 PM
Oct 29
77 °FClear.8 mph36%29.89 "Hg10 mi
10:00 PM79 °FClear.6 mph34%29.89 "Hg10 mi
9:00 PM82 °FClear.No wind32%29.86 "Hg10 mi
8:00 PM84 °FClear.3 mph29%29.86 "Hg10 mi
7:00 PM88 °FSunny.6 mph24%29.83 "Hg10 mi
6:00 PM88 °FSunny.7 mph22%29.83 "Hg10 mi
5:00 PM88 °FPassing clouds.7 mph21%29.86 "HgN/A
4:00 PM88 °FPassing clouds.9 mph21%29.86 "HgN/A
3:00 PM88 °FPassing clouds.6 mph21%29.89 "HgN/A
2:00 PM86 °FPassing clouds.6 mph25%29.92 "HgN/A
1:00 PM84 °FPassing clouds.8 mph27%29.95 "HgN/A
12:00 PM82 °FSunny.9 mph26%29.95 "Hg10 mi
Weather by CustomWeather, © 2014

See weather overviewHow to use our weather pages